Regional Weather Roundup
Issued by NWS Charleston, WV

Home | Current Version | Previous Version | Graphics & Text | Print | Product List | Glossary On
Versions: 1 2 3 4 5 6 7 8 9 10 11 12 13 14 15 16 17 18 19 20 21 22 23 24 25 26 27 28 29 30 31 32 33 34 35 36 37 38 39 40 41 42 43 44 45 46 47 48 49 50
000
ASUS41 KRLX 181010
RWRRLX
West Virginia Regional Weather Roundup
National Weather Service Charleston WV
500 AM EST THU DEC 18 2014

Note: "fair" indicates few or no clouds below 12,000 feet with no
significant weather and/or obstructions to visibility.

WVZ003-181100-
Northern Panhandle of West Virginia

CITY           SKY/WX    TMP DP  RH WIND       PRES   REMARKS
WHEELING       CLOUDY    27  18  69 W7        30.18S
$$

WVZ009-181100-
Northwest West Virginia

CITY           SKY/WX    TMP DP  RH WIND       PRES   REMARKS
PARKERSBURG    CLOUDY    28  19  69 NW5       30.27S
$$

WVZ006-181100-
Western West Virginia

CITY           SKY/WX    TMP DP  RH WIND       PRES   REMARKS
HUNTINGTON     CLOUDY    30  23  75 N6        30.24F
$$

WVZ015-181100-
West Central West Virginia

CITY           SKY/WX    TMP DP  RH WIND       PRES   REMARKS
CHARLESTON     CLOUDY    30  21  69 N8        30.23S
$$

WVZ022-031-181100-
North Central West Virginia

CITY           SKY/WX    TMP DP  RH WIND       PRES   REMARKS
CLARKSBURG     CLOUDY    28  19  69 NW8       30.19S
MORGANTOWN     CLOUDY    28  19  69 VRB3      30.18S
$$

WVZ025-035-042-045-181100-
Southern West Virginia

CITY           SKY/WX    TMP DP  RH WIND       PRES   REMARKS
BECKLEY        CLOUDY    26  19  74 W8        30.13S
LOGAN          CLOUDY    28  23  80 CALM      30.19R
BLUEFIELD      CLOUDY    28  21  75 NW9       30.11S
LEWISBURG      PTCLDY    29  21  73 NW3       30.11S
$$

WVZ047-181100-
Northern Mountains of West Virginia

CITY           SKY/WX    TMP DP  RH WIND       PRES   REMARKS
ELKINS         CLOUDY    26  20  77 NW12G20   30.14S
$$

WVZ052-181100-
Eastern Panhandle of West Virginia

CITY           SKY/WX    TMP DP  RH WIND       PRES   REMARKS
MARTINSBURG    MOCLDY    34  18  52 NW18G26   30.11S
PETERSBURG     PTCLDY    31  16  53 CALM      30.14S
$$



USA.gov is the U.S. government's official web portal to all federal, state and local government web resources and services.